Year,Month,Day,Hour,Minute,Value (Times are PST for windspeed in km/hr)
2017,05,23,00,00,4.60
2017,05,23,00,01,4.00
2017,05,23,00,02,4.30
2017,05,23,00,03,3.60
2017,05,23,00,04,3.10
2017,05,23,00,05,3.30
2017,05,23,00,06,3.70
2017,05,23,00,07,4.40
2017,05,23,00,08,5.10
2017,05,23,00,09,4.60
2017,05,23,00,10,4.10
2017,05,23,00,11,5.60
2017,05,23,00,12,4.90
2017,05,23,00,13,5.70
2017,05,23,00,14,5.60
2017,05,23,00,15,4.30
2017,05,23,00,16,4.00
2017,05,23,00,17,3.80
2017,05,23,00,18,4.60
2017,05,23,00,19,5.00
2017,05,23,00,20,4.30
2017,05,23,00,21,4.50
2017,05,23,00,22,6.30
2017,05,23,00,23,4.30
2017,05,23,00,24,4.40
2017,05,23,00,25,3.80
2017,05,23,00,26,4.00
2017,05,23,00,27,3.90
2017,05,23,00,28,4.90
2017,05,23,00,29,2.90
2017,05,23,00,30,4.60
2017,05,23,00,31,5.30
2017,05,23,00,32,4.30
2017,05,23,00,33,4.60
2017,05,23,00,34,5.90
2017,05,23,00,35,4.90
2017,05,23,00,36,5.00
2017,05,23,00,37,4.60
2017,05,23,00,38,5.00
2017,05,23,00,39,3.90
2017,05,23,00,40,4.40
2017,05,23,00,41,5.20
2017,05,23,00,42,3.70
2017,05,23,00,43,4.80
2017,05,23,00,44,5.10
2017,05,23,00,45,4.00
2017,05,23,00,46,4.70
2017,05,23,00,47,3.50
2017,05,23,00,48,3.60
2017,05,23,00,49,3.50
2017,05,23,00,50,3.60
2017,05,23,00,51,4.50
2017,05,23,00,52,4.50
2017,05,23,00,53,5.00
2017,05,23,00,54,4.30
2017,05,23,00,55,5.30
2017,05,23,00,56,4.20
2017,05,23,00,57,3.90
2017,05,23,00,58,3.50
2017,05,23,00,59,5.20
2017,05,23,01,00,5.50
2017,05,23,01,01,5.00
2017,05,23,01,02,4.70
2017,05,23,01,03,4.90
2017,05,23,01,04,3.40
2017,05,23,01,05,3.70
2017,05,23,01,06,4.70
2017,05,23,01,07,4.20
2017,05,23,01,08,5.10
2017,05,23,01,09,4.70
2017,05,23,01,10,4.50
2017,05,23,01,11,4.10
2017,05,23,01,12,2.90
2017,05,23,01,13,5.20
2017,05,23,01,14,4.20
2017,05,23,01,15,4.30
2017,05,23,01,16,3.80
2017,05,23,01,17,3.70
2017,05,23,01,18,3.40
2017,05,23,01,19,4.40
2017,05,23,01,20,4.50
2017,05,23,01,21,4.70
2017,05,23,01,22,4.30
2017,05,23,01,23,3.40
2017,05,23,01,24,3.30
2017,05,23,01,25,3.90
2017,05,23,01,26,4.00
2017,05,23,01,27,3.50
2017,05,23,01,28,3.10
2017,05,23,01,29,3.50
2017,05,23,01,30,3.10
2017,05,23,01,31,4.40
2017,05,23,01,32,4.10
2017,05,23,01,33,4.20
2017,05,23,01,34,4.40
2017,05,23,01,35,3.70
2017,05,23,01,36,3.60
2017,05,23,01,37,4.10
2017,05,23,01,38,4.60
2017,05,23,01,39,4.30
2017,05,23,01,40,3.80
2017,05,23,01,41,3.10
2017,05,23,01,42,3.50
2017,05,23,01,43,2.60
2017,05,23,01,44,3.00
2017,05,23,01,45,2.90
2017,05,23,01,46,2.40
2017,05,23,01,47,2.10
2017,05,23,01,48,2.20
2017,05,23,01,49,2.20
2017,05,23,01,50,2.60
2017,05,23,01,51,1.90
2017,05,23,01,52,2.30
2017,05,23,01,53,2.30
2017,05,23,01,54,2.80
2017,05,23,01,55,2.50
2017,05,23,01,56,2.80
2017,05,23,01,57,2.70
2017,05,23,01,58,3.30
2017,05,23,01,59,2.90
2017,05,23,02,00,2.60
2017,05,23,02,01,2.40
2017,05,23,02,02,2.90
2017,05,23,02,03,2.80
2017,05,23,02,04,3.00
2017,05,23,02,05,3.10
2017,05,23,02,06,3.00
2017,05,23,02,07,2.40
2017,05,23,02,08,3.10
2017,05,23,02,09,2.80
2017,05,23,02,10,3.30
2017,05,23,02,11,4.30
2017,05,23,02,12,4.50
2017,05,23,02,13,4.90
2017,05,23,02,14,5.20
2017,05,23,02,15,5.20
2017,05,23,02,16,6.10
2017,05,23,02,17,5.50
2017,05,23,02,18,4.90
2017,05,23,02,19,4.70
2017,05,23,02,20,5.00
2017,05,23,02,21,4.90
2017,05,23,02,22,4.70
2017,05,23,02,23,5.20
2017,05,23,02,24,5.30
2017,05,23,02,25,6.00
2017,05,23,02,26,6.10
2017,05,23,02,27,7.20
2017,05,23,02,28,8.50
2017,05,23,02,29,7.50
2017,05,23,02,30,6.30
2017,05,23,02,31,6.60
2017,05,23,02,32,5.60
2017,05,23,02,33,5.00
2017,05,23,02,34,5.70
2017,05,23,02,35,4.70
2017,05,23,02,36,4.60
2017,05,23,02,37,4.70
2017,05,23,02,38,3.90
2017,05,23,02,39,3.00
2017,05,23,02,40,3.30
2017,05,23,02,41,3.20
2017,05,23,02,42,3.00
2017,05,23,02,43,2.80
2017,05,23,02,44,3.10
2017,05,23,02,45,4.70
2017,05,23,02,46,5.10
2017,05,23,02,47,4.10
2017,05,23,02,48,5.70
2017,05,23,02,49,4.70
2017,05,23,02,50,3.10
2017,05,23,02,51,4.60
2017,05,23,02,52,6.00
2017,05,23,02,53,4.40
2017,05,23,02,54,4.00
2017,05,23,02,55,4.30
2017,05,23,02,56,3.70
2017,05,23,02,57,3.00
2017,05,23,02,58,4.20
2017,05,23,02,59,4.90
2017,05,23,03,00,4.30
2017,05,23,03,01,5.60
2017,05,23,03,02,4.80
2017,05,23,03,03,5.80
2017,05,23,03,04,6.40
2017,05,23,03,05,5.40
2017,05,23,03,06,5.80
2017,05,23,03,07,5.80
2017,05,23,03,08,5.60
2017,05,23,03,09,5.40
2017,05,23,03,10,3.90
2017,05,23,03,11,3.60
2017,05,23,03,12,3.10
2017,05,23,03,13,3.90
2017,05,23,03,14,3.50
2017,05,23,03,15,2.70
2017,05,23,03,16,2.90
2017,05,23,03,17,3.40
2017,05,23,03,18,3.50
2017,05,23,03,19,2.50
2017,05,23,03,20,2.70
2017,05,23,03,21,2.70
2017,05,23,03,22,2.70
2017,05,23,03,23,1.90
2017,05,23,03,24,1.80
2017,05,23,03,25,1.60
2017,05,23,03,26,1.90
2017,05,23,03,27,3.00
2017,05,23,03,28,3.20
2017,05,23,03,29,3.00
2017,05,23,03,30,3.00
2017,05,23,03,31,2.90
2017,05,23,03,32,3.90
2017,05,23,03,33,4.30
2017,05,23,03,34,4.70
2017,05,23,03,35,4.80
2017,05,23,03,36,5.60
2017,05,23,03,37,4.80
2017,05,23,03,38,4.50
2017,05,23,03,39,5.10
2017,05,23,03,40,4.40
2017,05,23,03,41,3.30
2017,05,23,03,42,3.40
2017,05,23,03,43,4.80
2017,05,23,03,44,4.80
2017,05,23,03,45,5.70
2017,05,23,03,46,6.10
2017,05,23,03,47,6.70
2017,05,23,03,48,5.80
2017,05,23,03,49,5.30
2017,05,23,03,50,7.20
2017,05,23,03,51,6.10
2017,05,23,03,52,5.00
2017,05,23,03,53,6.40
2017,05,23,03,54,3.50
2017,05,23,03,55,6.50
2017,05,23,03,56,5.20
2017,05,23,03,57,4.30
2017,05,23,03,58,4.80
2017,05,23,03,59,5.70
2017,05,23,04,00,6.10
2017,05,23,04,01,4.20
2017,05,23,04,02,5.30
2017,05,23,04,03,4.50
2017,05,23,04,04,4.80
2017,05,23,04,05,5.30
2017,05,23,04,06,5.30
2017,05,23,04,07,4.80
2017,05,23,04,08,6.10
2017,05,23,04,09,6.00
2017,05,23,04,10,4.90
2017,05,23,04,11,6.30
2017,05,23,04,12,5.00
2017,05,23,04,13,4.60
2017,05,23,04,14,5.50
2017,05,23,04,15,5.10
2017,05,23,04,16,5.10
2017,05,23,04,17,5.60
2017,05,23,04,18,6.00
2017,05,23,04,19,5.20
2017,05,23,04,20,3.90
2017,05,23,04,21,4.40
2017,05,23,04,22,4.90
2017,05,23,04,23,3.90
2017,05,23,04,24,3.40
2017,05,23,04,25,4.50
2017,05,23,04,26,2.70
2017,05,23,04,27,2.90
2017,05,23,04,28,3.20
2017,05,23,04,29,3.10
2017,05,23,04,30,2.30
2017,05,23,04,31,2.40
2017,05,23,04,32,1.90
2017,05,23,04,33,2.00
2017,05,23,04,34,1.50
2017,05,23,04,35,0.20
2017,05,23,04,36,1.00
2017,05,23,04,37,1.60
2017,05,23,04,38,1.40
2017,05,23,04,39,1.60
2017,05,23,04,40,0.20
2017,05,23,04,41,0.00
2017,05,23,04,42,0.00
2017,05,23,04,43,0.00
2017,05,23,04,44,0.00
2017,05,23,04,45,0.00
2017,05,23,04,46,0.00
2017,05,23,04,47,0.40
2017,05,23,04,48,2.40
2017,05,23,04,49,2.60
2017,05,23,04,50,1.10
2017,05,23,04,51,0.20
2017,05,23,04,52,0.00
2017,05,23,04,53,0.00
2017,05,23,04,54,0.00
2017,05,23,04,55,0.00
2017,05,23,04,56,0.00
2017,05,23,04,57,0.00
2017,05,23,04,58,1.30
2017,05,23,04,59,2.20
2017,05,23,05,00,2.40
2017,05,23,05,01,2.60
2017,05,23,05,02,2.00
2017,05,23,05,03,2.40
2017,05,23,05,04,2.90
2017,05,23,05,05,2.30
2017,05,23,05,06,2.10
2017,05,23,05,07,1.70
2017,05,23,05,08,1.90
2017,05,23,05,09,1.90
2017,05,23,05,10,2.20
2017,05,23,05,11,2.40
2017,05,23,05,12,2.10
2017,05,23,05,13,2.80
2017,05,23,05,14,2.50
2017,05,23,05,15,2.30
2017,05,23,05,16,3.00
2017,05,23,05,17,3.00
2017,05,23,05,18,3.10
2017,05,23,05,19,2.60
2017,05,23,05,20,2.00
2017,05,23,05,21,2.00
2017,05,23,05,22,2.10
2017,05,23,05,23,2.00
2017,05,23,05,24,2.50
2017,05,23,05,25,2.70
2017,05,23,05,26,3.10
2017,05,23,05,27,4.30
2017,05,23,05,28,4.20
2017,05,23,05,29,4.70
2017,05,23,05,30,4.70
2017,05,23,05,31,5.10
2017,05,23,05,32,5.00
2017,05,23,05,33,4.30
2017,05,23,05,34,3.90
2017,05,23,05,35,3.20
2017,05,23,05,36,4.50
2017,05,23,05,37,5.30
2017,05,23,05,38,5.50
2017,05,23,05,39,5.60
2017,05,23,05,40,5.30
2017,05,23,05,41,5.60
2017,05,23,05,42,4.60
2017,05,23,05,43,5.10
2017,05,23,05,44,5.20
2017,05,23,05,45,3.60
2017,05,23,05,46,4.50
2017,05,23,05,47,4.70
2017,05,23,05,48,4.60
2017,05,23,05,49,5.60
2017,05,23,05,50,5.70
2017,05,23,05,51,5.60
2017,05,23,05,52,5.50
2017,05,23,05,53,5.10
2017,05,23,05,54,4.40
2017,05,23,05,55,3.90
2017,05,23,05,56,3.40
2017,05,23,05,57,3.00
2017,05,23,05,58,3.00
2017,05,23,05,59,2.40
2017,05,23,06,00,2.80
2017,05,23,06,01,3.50
2017,05,23,06,02,3.90
2017,05,23,06,03,3.70
2017,05,23,06,04,3.50
2017,05,23,06,05,4.00
2017,05,23,06,06,5.60
2017,05,23,06,07,5.60
2017,05,23,06,08,4.70
2017,05,23,06,09,4.40
2017,05,23,06,10,4.60
2017,05,23,06,11,4.10
2017,05,23,06,12,3.80
2017,05,23,06,13,4.70
2017,05,23,06,14,4.60
2017,05,23,06,15,2.60
2017,05,23,06,16,4.60
2017,05,23,06,17,4.70
2017,05,23,06,18,3.90
2017,05,23,06,19,4.60
2017,05,23,06,20,5.40
2017,05,23,06,21,4.90
2017,05,23,06,22,5.30
2017,05,23,06,23,5.20
2017,05,23,06,24,5.80
2017,05,23,06,25,5.10
2017,05,23,06,26,5.10
2017,05,23,06,27,4.80
2017,05,23,06,28,4.70
2017,05,23,06,29,4.70
2017,05,23,06,30,3.60
2017,05,23,06,31,2.50
2017,05,23,06,32,3.80
2017,05,23,06,33,4.10
2017,05,23,06,34,5.10
2017,05,23,06,35,4.70
2017,05,23,06,36,3.90
2017,05,23,06,37,3.80
2017,05,23,06,38,3.60
2017,05,23,06,39,3.40
2017,05,23,06,40,2.70
2017,05,23,06,41,3.00
2017,05,23,06,42,2.40
2017,05,23,06,43,1.80
2017,05,23,06,44,2.00
2017,05,23,06,45,2.00
2017,05,23,06,46,2.50
2017,05,23,06,47,2.00
2017,05,23,06,48,2.40
2017,05,23,06,49,2.10
2017,05,23,06,50,0.90
2017,05,23,06,51,0.00
2017,05,23,06,52,0.00
2017,05,23,06,53,0.00
2017,05,23,06,54,0.00
2017,05,23,06,55,0.00
2017,05,23,06,56,0.00
2017,05,23,06,57,0.30
2017,05,23,06,58,3.20
2017,05,23,06,59,4.20
2017,05,23,07,00,4.60
2017,05,23,07,01,4.80
2017,05,23,07,02,4.80
2017,05,23,07,03,4.20
2017,05,23,07,04,3.40
2017,05,23,07,05,1.70
2017,05,23,07,06,1.50
2017,05,23,07,07,1.10
2017,05,23,07,08,1.50
2017,05,23,07,09,0.00
2017,05,23,07,10,0.20
2017,05,23,07,11,0.00
2017,05,23,07,12,0.00
2017,05,23,07,13,0.00
2017,05,23,07,14,0.00
2017,05,23,07,15,0.00
2017,05,23,07,16,0.00
2017,05,23,07,17,0.00
2017,05,23,07,18,0.00
2017,05,23,07,19,0.00
2017,05,23,07,20,1.10
2017,05,23,07,21,1.80
2017,05,23,07,22,0.40
2017,05,23,07,23,0.00
2017,05,23,07,24,1.10
2017,05,23,07,25,1.30
2017,05,23,07,26,3.80
2017,05,23,07,27,3.50
2017,05,23,07,28,2.80
2017,05,23,07,29,4.00
2017,05,23,07,30,4.90
2017,05,23,07,31,6.40
2017,05,23,07,32,8.50
2017,05,23,07,33,10.40
2017,05,23,07,34,10.50
2017,05,23,07,35,7.60
2017,05,23,07,36,7.20
2017,05,23,07,37,5.80
2017,05,23,07,38,5.00
2017,05,23,07,39,4.30
2017,05,23,07,40,5.60
2017,05,23,07,41,4.70
2017,05,23,07,42,3.70
2017,05,23,07,43,4.60
2017,05,23,07,44,7.70
2017,05,23,07,45,7.30
2017,05,23,07,46,10.50
2017,05,23,07,47,8.70
2017,05,23,07,48,8.90
2017,05,23,07,49,8.40
2017,05,23,07,50,7.80
2017,05,23,07,51,6.40
2017,05,23,07,52,6.80
2017,05,23,07,53,5.00
2017,05,23,07,54,3.40
2017,05,23,07,55,3.80
2017,05,23,07,56,5.30
2017,05,23,07,57,3.30
2017,05,23,07,58,6.00
2017,05,23,07,59,7.80
2017,05,23,08,00,9.90
2017,05,23,08,01,10.50
2017,05,23,08,02,9.40
2017,05,23,08,03,9.60
2017,05,23,08,04,12.20
2017,05,23,08,05,8.90
2017,05,23,08,06,8.50
2017,05,23,08,07,9.40
2017,05,23,08,08,8.90
2017,05,23,08,09,11.30
2017,05,23,08,10,14.00
2017,05,23,08,11,9.50
2017,05,23,08,12,10.30
2017,05,23,08,13,9.10
2017,05,23,08,14,8.50
2017,05,23,08,15,10.30
2017,05,23,08,16,9.50
2017,05,23,08,17,9.60
2017,05,23,08,18,8.10
2017,05,23,08,19,7.80
2017,05,23,08,20,11.50
2017,05,23,08,21,8.10
2017,05,23,08,22,6.80
2017,05,23,08,23,12.60
2017,05,23,08,24,14.00
2017,05,23,08,25,9.80
2017,05,23,08,26,9.20
2017,05,23,08,27,9.70
2017,05,23,08,28,9.20
2017,05,23,08,29,15.10
2017,05,23,08,30,10.60
2017,05,23,08,31,8.50
2017,05,23,08,32,6.20
2017,05,23,08,33,6.50
2017,05,23,08,34,8.30
2017,05,23,08,35,8.60
2017,05,23,08,36,12.00
2017,05,23,08,37,7.70
2017,05,23,08,38,7.80
2017,05,23,08,39,4.40
2017,05,23,08,40,5.60
2017,05,23,08,41,6.00
2017,05,23,08,42,7.40
2017,05,23,08,43,5.60
2017,05,23,08,44,4.40
2017,05,23,08,45,5.60
2017,05,23,08,46,6.30
2017,05,23,08,47,4.30
2017,05,23,08,48,6.10
2017,05,23,08,49,6.30
2017,05,23,08,50,5.10
2017,05,23,08,51,3.30
2017,05,23,08,52,2.40
2017,05,23,08,53,3.30
2017,05,23,08,54,5.00
2017,05,23,08,55,5.90
2017,05,23,08,56,5.10
2017,05,23,08,57,2.10
2017,05,23,08,58,4.90
2017,05,23,08,59,4.60
2017,05,23,09,00,2.10
2017,05,23,09,01,0.80
2017,05,23,09,02,2.20
2017,05,23,09,03,2.00
2017,05,23,09,04,2.70
2017,05,23,09,05,3.70
2017,05,23,09,06,4.40
2017,05,23,09,07,4.30
2017,05,23,09,08,1.20
2017,05,23,09,09,2.40
2017,05,23,09,10,4.10
2017,05,23,09,11,3.50
2017,05,23,09,12,3.90
2017,05,23,09,13,3.00
2017,05,23,09,14,5.30
2017,05,23,09,15,6.60
2017,05,23,09,16,3.70
2017,05,23,09,17,6.30
2017,05,23,09,18,7.40
2017,05,23,09,19,6.80
2017,05,23,09,20,5.60
2017,05,23,09,21,7.10
2017,05,23,09,22,7.60
2017,05,23,09,23,11.20
2017,05,23,09,24,8.30
2017,05,23,09,25,6.60
2017,05,23,09,26,7.00
2017,05,23,09,27,4.70
2017,05,23,09,28,4.30
2017,05,23,09,29,6.10
2017,05,23,09,30,6.60
2017,05,23,09,31,3.70
2017,05,23,09,32,4.80
2017,05,23,09,33,6.70
2017,05,23,09,34,5.30
2017,05,23,09,35,2.90
2017,05,23,09,36,4.70
2017,05,23,09,37,4.70
2017,05,23,09,38,5.00
2017,05,23,09,39,4.10
2017,05,23,09,40,3.10
2017,05,23,09,41,3.10
2017,05,23,09,42,4.00
2017,05,23,09,43,6.80
2017,05,23,09,44,3.20
2017,05,23,09,45,4.70
2017,05,23,09,46,6.00
2017,05,23,09,47,7.50
2017,05,23,09,48,8.90
2017,05,23,09,49,7.80
2017,05,23,09,50,6.80
2017,05,23,09,51,6.20
2017,05,23,09,52,8.40
2017,05,23,09,53,4.90
2017,05,23,09,54,4.70
2017,05,23,09,55,5.60
2017,05,23,09,56,7.60
2017,05,23,09,57,10.50
2017,05,23,09,58,11.30
2017,05,23,09,59,7.80
2017,05,23,10,00,9.70
2017,05,23,10,01,9.60
2017,05,23,10,02,10.00
2017,05,23,10,03,6.80
2017,05,23,10,04,7.90
2017,05,23,10,05,7.60
2017,05,23,10,06,7.60
2017,05,23,10,07,7.70
2017,05,23,10,08,7.70
2017,05,23,10,09,8.20
2017,05,23,10,10,9.70
2017,05,23,10,11,8.10
2017,05,23,10,12,7.70
2017,05,23,10,13,8.90
2017,05,23,10,14,6.20
2017,05,23,10,15,6.10
2017,05,23,10,16,6.50
2017,05,23,10,17,8.20
2017,05,23,10,18,4.70
2017,05,23,10,19,5.80
2017,05,23,10,20,4.80
2017,05,23,10,21,7.50
2017,05,23,10,22,5.00
2017,05,23,10,23,3.00
2017,05,23,10,24,1.80
2017,05,23,10,25,6.70
2017,05,23,10,26,7.00
2017,05,23,10,27,5.50
2017,05,23,10,28,7.40
2017,05,23,10,29,8.50
2017,05,23,10,30,8.30
2017,05,23,10,31,7.60
2017,05,23,10,32,6.80
2017,05,23,10,33,6.60
2017,05,23,10,34,8.70
2017,05,23,10,35,10.00
2017,05,23,10,36,9.50
2017,05,23,10,37,9.70
2017,05,23,10,38,11.30
2017,05,23,10,39,10.10
2017,05,23,10,40,11.80
2017,05,23,10,41,8.80
2017,05,23,10,42,6.90
2017,05,23,10,43,6.20
2017,05,23,10,44,9.30
2017,05,23,10,45,9.50
2017,05,23,10,46,7.40
2017,05,23,10,47,6.90
2017,05,23,10,48,6.50
2017,05,23,10,49,5.40
2017,05,23,10,50,4.10
2017,05,23,10,51,3.60
2017,05,23,10,52,6.50
2017,05,23,10,53,6.00
2017,05,23,10,54,5.00
2017,05,23,10,55,4.70
2017,05,23,10,56,6.00
2017,05,23,10,57,5.00
2017,05,23,10,58,8.20
2017,05,23,10,59,6.50
2017,05,23,11,00,5.40
2017,05,23,11,01,3.70
2017,05,23,11,02,4.30
2017,05,23,11,03,3.50
2017,05,23,11,04,5.20
2017,05,23,11,05,5.10
2017,05,23,11,06,4.50
2017,05,23,11,07,4.50
2017,05,23,11,08,4.40
2017,05,23,11,09,5.70
2017,05,23,11,10,2.70
2017,05,23,11,11,3.70
2017,05,23,11,12,4.00
2017,05,23,11,13,4.70
2017,05,23,11,14,4.80
2017,05,23,11,15,8.10
2017,05,23,11,16,6.60
2017,05,23,11,17,6.60
2017,05,23,11,18,8.50
2017,05,23,11,19,6.10
2017,05,23,11,20,6.90
2017,05,23,11,21,8.50
2017,05,23,11,22,7.50
2017,05,23,11,23,6.70
2017,05,23,11,24,6.00
2017,05,23,11,25,6.50
2017,05,23,11,26,4.80
2017,05,23,11,27,5.50
2017,05,23,11,28,6.50
2017,05,23,11,29,5.20
2017,05,23,11,30,5.10
2017,05,23,11,31,5.20
2017,05,23,11,32,5.20
2017,05,23,11,33,4.60
2017,05,23,11,34,6.80
2017,05,23,11,35,6.00
2017,05,23,11,36,5.20
2017,05,23,11,37,3.50
2017,05,23,11,38,6.00
2017,05,23,11,39,5.10
2017,05,23,11,40,5.10
2017,05,23,11,41,8.00
2017,05,23,11,42,6.70
2017,05,23,11,43,5.90
2017,05,23,11,44,4.10
2017,05,23,11,45,2.70
2017,05,23,11,46,7.30
2017,05,23,11,47,8.90
2017,05,23,11,48,3.90
2017,05,23,11,49,3.80
2017,05,23,11,50,5.60
2017,05,23,11,51,3.00
2017,05,23,11,52,2.20
2017,05,23,11,53,6.20
2017,05,23,11,54,9.10
2017,05,23,11,55,5.30
2017,05,23,11,56,3.50
2017,05,23,11,57,3.60
2017,05,23,11,58,5.60
2017,05,23,11,59,6.60
2017,05,23,12,00,5.50
2017,05,23,12,01,8.00
2017,05,23,12,02,8.80
2017,05,23,12,03,9.50
2017,05,23,12,04,6.30
2017,05,23,12,05,8.00
2017,05,23,12,06,7.30
2017,05,23,12,07,7.20
2017,05,23,12,08,8.30
2017,05,23,12,09,4.90
2017,05,23,12,10,9.00
2017,05,23,12,11,8.30
2017,05,23,12,12,5.90
2017,05,23,12,13,6.80
2017,05,23,12,14,9.70
2017,05,23,12,15,5.80
2017,05,23,12,16,7.30
2017,05,23,12,17,9.20
2017,05,23,12,18,9.30
2017,05,23,12,19,7.40
2017,05,23,12,20,6.80
2017,05,23,12,21,7.60
2017,05,23,12,22,10.10
2017,05,23,12,23,8.70
2017,05,23,12,24,8.90
2017,05,23,12,25,11.70
2017,05,23,12,26,8.40
2017,05,23,12,27,6.50
2017,05,23,12,28,7.00
2017,05,23,12,29,8.80
2017,05,23,12,30,7.60
2017,05,23,12,31,8.10
2017,05,23,12,32,6.70
2017,05,23,12,33,6.90
2017,05,23,12,34,7.40
2017,05,23,12,35,7.70
2017,05,23,12,36,7.10
2017,05,23,12,37,7.30
2017,05,23,12,38,6.00
2017,05,23,12,39,7.40
2017,05,23,12,40,4.60
2017,05,23,12,41,6.80
2017,05,23,12,42,7.10
2017,05,23,12,43,7.00
2017,05,23,12,44,8.10
2017,05,23,12,45,8.80
2017,05,23,12,46,7.00
2017,05,23,12,47,7.00
2017,05,23,12,48,6.80
2017,05,23,12,49,6.70
2017,05,23,12,50,6.60
2017,05,23,12,51,7.50
2017,05,23,12,52,7.30
2017,05,23,12,53,4.30
2017,05,23,12,54,6.90
2017,05,23,12,55,7.80
2017,05,23,12,56,8.00
2017,05,23,12,57,9.90
2017,05,23,12,58,7.70
2017,05,23,12,59,6.90
2017,05,23,13,00,6.30
2017,05,23,13,01,5.40
2017,05,23,13,02,6.10
2017,05,23,13,03,6.40
2017,05,23,13,04,8.00
2017,05,23,13,05,8.40
2017,05,23,13,06,6.80
2017,05,23,13,07,5.10
2017,05,23,13,08,5.40
2017,05,23,13,09,2.00
2017,05,23,13,10,6.70
2017,05,23,13,11,7.90
2017,05,23,13,12,8.30
2017,05,23,13,13,6.20
2017,05,23,13,14,7.00
2017,05,23,13,15,6.50
2017,05,23,13,16,7.60
2017,05,23,13,17,5.60
2017,05,23,13,18,8.40
2017,05,23,13,19,8.70
2017,05,23,13,20,9.30
2017,05,23,13,21,8.20
2017,05,23,13,22,5.10
2017,05,23,13,23,6.40
2017,05,23,13,24,6.00
2017,05,23,13,25,7.10
2017,05,23,13,26,8.20
2017,05,23,13,27,5.60
2017,05,23,13,28,8.50
2017,05,23,13,29,6.40
2017,05,23,13,30,7.80
2017,05,23,13,31,8.70
2017,05,23,13,32,8.30
2017,05,23,13,33,10.10
2017,05,23,13,34,7.30
2017,05,23,13,35,10.00
2017,05,23,13,36,13.30
2017,05,23,13,37,9.30
2017,05,23,13,38,5.10
2017,05,23,13,39,10.60
2017,05,23,13,40,15.10
2017,05,23,13,41,18.10
2017,05,23,13,42,16.60
2017,05,23,13,43,10.60
2017,05,23,13,44,8.40
2017,05,23,13,45,8.30
2017,05,23,13,46,7.80
2017,05,23,13,47,5.80
2017,05,23,13,48,19.60
2017,05,23,13,49,22.50
2017,05,23,13,50,25.00
2017,05,23,13,51,17.40
2017,05,23,13,52,20.20
2017,05,23,13,53,10.20
2017,05,23,13,54,16.30
2017,05,23,13,55,16.30
2017,05,23,13,56,18.00
2017,05,23,13,57,17.00
2017,05,23,13,58,20.40
2017,05,23,13,59,22.40
2017,05,23,14,00,19.00
2017,05,23,14,01,18.30
2017,05,23,14,02,22.00
2017,05,23,14,03,24.90
2017,05,23,14,04,20.60
2017,05,23,14,05,20.90
2017,05,23,14,06,28.90
2017,05,23,14,07,22.60
2017,05,23,14,08,25.30
2017,05,23,14,09,27.70
2017,05,23,14,10,27.30
2017,05,23,14,11,23.00
2017,05,23,14,12,20.00
2017,05,23,14,13,25.10
2017,05,23,14,14,21.10
2017,05,23,14,15,13.90
2017,05,23,14,16,18.80
2017,05,23,14,17,9.70
2017,05,23,14,18,23.50
2017,05,23,14,19,17.10
2017,05,23,14,20,16.60
2017,05,23,14,21,21.30
2017,05,23,14,22,20.30
2017,05,23,14,23,19.10
2017,05,23,14,24,18.60
2017,05,23,14,25,17.00
2017,05,23,14,26,15.60
2017,05,23,14,27,17.50
2017,05,23,14,28,16.20
2017,05,23,14,29,17.00
2017,05,23,14,30,19.80
2017,05,23,14,31,23.10
2017,05,23,14,32,19.30
2017,05,23,14,33,14.70
2017,05,23,14,34,19.10
2017,05,23,14,35,20.90
2017,05,23,14,36,24.30
2017,05,23,14,37,21.90
2017,05,23,14,38,10.50
2017,05,23,14,39,10.70
2017,05,23,14,40,19.20
2017,05,23,14,41,22.00
2017,05,23,14,42,20.00
2017,05,23,14,43,14.50
2017,05,23,14,44,18.00
2017,05,23,14,45,23.50
2017,05,23,14,46,20.40
2017,05,23,14,47,23.10
2017,05,23,14,48,20.80
2017,05,23,14,49,24.40
2017,05,23,14,50,24.60
2017,05,23,14,51,23.10
2017,05,23,14,52,17.20
2017,05,23,14,53,19.80
2017,05,23,14,54,19.70
2017,05,23,14,55,20.70
2017,05,23,14,56,18.80
2017,05,23,14,57,25.30
2017,05,23,14,58,14.50
2017,05,23,14,59,21.90
2017,05,23,15,00,17.50
2017,05,23,15,01,17.90
2017,05,23,15,02,17.20
2017,05,23,15,03,14.20
2017,05,23,15,04,12.80
2017,05,23,15,05,21.70
2017,05,23,15,06,19.00
2017,05,23,15,07,15.90
2017,05,23,15,08,13.50
2017,05,23,15,09,14.20
2017,05,23,15,10,13.70
2017,05,23,15,11,14.60
2017,05,23,15,12,13.80
2017,05,23,15,13,17.70
2017,05,23,15,14,17.60
2017,05,23,15,15,18.00
2017,05,23,15,16,16.90
2017,05,23,15,17,14.90
2017,05,23,15,18,15.80
2017,05,23,15,19,12.10
2017,05,23,15,20,11.60
2017,05,23,15,21,13.30
2017,05,23,15,22,16.80
2017,05,23,15,23,17.80
2017,05,23,15,24,16.10
2017,05,23,15,25,15.20
2017,05,23,15,26,13.80
2017,05,23,15,27,13.10
2017,05,23,15,28,13.60
2017,05,23,15,29,12.90
2017,05,23,15,30,16.90
2017,05,23,15,31,16.90
2017,05,23,15,32,14.20
2017,05,23,15,33,19.60
2017,05,23,15,34,19.10
2017,05,23,15,35,8.60
2017,05,23,15,36,11.70
2017,05,23,15,37,7.30
2017,05,23,15,38,15.50
2017,05,23,15,39,19.10
2017,05,23,15,40,16.80
2017,05,23,15,41,14.80
2017,05,23,15,42,8.20
2017,05,23,15,43,19.00
2017,05,23,15,44,20.80
2017,05,23,15,45,14.60
2017,05,23,15,46,15.30
2017,05,23,15,47,8.90
2017,05,23,15,48,15.30
2017,05,23,15,49,17.10
2017,05,23,15,50,18.50
2017,05,23,15,51,22.40
2017,05,23,15,52,24.20
2017,05,23,15,53,22.80
2017,05,23,15,54,20.80
2017,05,23,15,55,18.30
2017,05,23,15,56,19.00
2017,05,23,15,57,19.70
2017,05,23,15,58,19.70
2017,05,23,15,59,23.90
2017,05,23,16,00,21.70
2017,05,23,16,01,15.90
2017,05,23,16,02,23.50
2017,05,23,16,03,21.90
2017,05,23,16,04,28.60
2017,05,23,16,05,28.00
2017,05,23,16,06,25.00
2017,05,23,16,07,29.40
2017,05,23,16,08,22.90
2017,05,23,16,09,24.90
2017,05,23,16,10,24.20
2017,05,23,16,11,31.90
2017,05,23,16,12,30.80
2017,05,23,16,13,33.90
2017,05,23,16,14,31.60
2017,05,23,16,15,31.90
2017,05,23,16,16,24.90
2017,05,23,16,17,26.40
2017,05,23,16,18,27.70
2017,05,23,16,19,24.90
2017,05,23,16,20,27.60
2017,05,23,16,21,21.60
2017,05,23,16,22,24.70
2017,05,23,16,23,23.70
2017,05,23,16,24,26.90
2017,05,23,16,25,29.20
2017,05,23,16,26,29.80
2017,05,23,16,27,22.70
2017,05,23,16,28,22.40
2017,05,23,16,29,25.00
2017,05,23,16,30,32.50
2017,05,23,16,31,36.00
2017,05,23,16,32,31.30
2017,05,23,16,33,27.10
2017,05,23,16,34,20.50
2017,05,23,16,35,22.50
2017,05,23,16,36,22.20
2017,05,23,16,37,24.80
2017,05,23,16,38,24.40
2017,05,23,16,39,20.30
2017,05,23,16,40,27.80
2017,05,23,16,41,23.20
2017,05,23,16,42,19.50
2017,05,23,16,43,22.70
2017,05,23,16,44,18.50
2017,05,23,16,45,24.80
2017,05,23,16,46,19.00
2017,05,23,16,47,22.00
2017,05,23,16,48,20.80
2017,05,23,16,49,21.60
2017,05,23,16,50,13.60
2017,05,23,16,51,18.70
2017,05,23,16,52,21.80
2017,05,23,16,53,22.30
2017,05,23,16,54,23.60
2017,05,23,16,55,22.40
2017,05,23,16,56,19.70
2017,05,23,16,57,22.40
2017,05,23,16,58,22.80
2017,05,23,16,59,21.50
2017,05,23,17,00,21.40
2017,05,23,17,01,17.50
2017,05,23,17,02,21.00
2017,05,23,17,03,24.00
2017,05,23,17,04,18.80
2017,05,23,17,05,19.70
2017,05,23,17,06,15.60
2017,05,23,17,07,15.90
2017,05,23,17,08,26.70
2017,05,23,17,09,21.90
2017,05,23,17,10,23.70
2017,05,23,17,11,34.40
2017,05,23,17,12,27.30
2017,05,23,17,13,27.50
2017,05,23,17,14,27.80
2017,05,23,17,15,22.60
2017,05,23,17,16,31.10
2017,05,23,17,17,28.50
2017,05,23,17,18,23.70
2017,05,23,17,19,25.10
2017,05,23,17,20,27.00
2017,05,23,17,21,31.60
2017,05,23,17,22,25.40
2017,05,23,17,23,20.30
2017,05,23,17,24,22.90
2017,05,23,17,25,22.40
2017,05,23,17,26,24.00
2017,05,23,17,27,25.80
2017,05,23,17,28,27.20
2017,05,23,17,29,20.40
2017,05,23,17,30,28.00
2017,05,23,17,31,24.60
2017,05,23,17,32,27.20
2017,05,23,17,33,32.30
2017,05,23,17,34,25.90
2017,05,23,17,35,29.00
2017,05,23,17,36,24.50
2017,05,23,17,37,29.70
2017,05,23,17,38,23.70
2017,05,23,17,39,27.00
2017,05,23,17,40,25.20
2017,05,23,17,41,29.50
2017,05,23,17,42,30.80
2017,05,23,17,43,28.10
2017,05,23,17,44,22.30
2017,05,23,17,45,27.80
2017,05,23,17,46,29.30
2017,05,23,17,47,26.00
2017,05,23,17,48,23.60
2017,05,23,17,49,20.40
2017,05,23,17,50,27.80
2017,05,23,17,51,28.40
2017,05,23,17,52,22.40
2017,05,23,17,53,24.50
2017,05,23,17,54,29.00